This demonstration page uses our WeatherBlox Daily Observations layout. Learn more.

Left ArrowRight Arrow

Hourly Observations for August 10, 2015

Temp ( °F °C ) Dew Point ( °F °C ) Humidity (%) Winds ( mph kmh ) Pressure ( in mb ) Visibility ( mi km ) Precip ( " mm )
12:53 am 00:53 Cloudy with Haze 78 25.6 47 8.3 33 33 Calm 29.81 1010 4 6 0.00 0.00
1:53 am 01:53 Cloudy with Haze 73 22.8 47 8.3 40 40 N 3 6 29.80 1009 5 8 0.00 0.00
2:53 am 02:53 Cloudy 71 21.7 46 7.8 41 41 NW 5 7 29.81 1009 7 11 0.00 0.00
3:53 am 03:53 Cloudy with Haze 71 21.7 48 8.9 44 44 Calm 29.80 1009 5 8 0.00 0.00
4:53 am 04:53 Cloudy with Haze 70 21.1 48 8.9 46 46 Calm 29.80 1009 6 10 0.00 0.00
5:53 am 05:53 Cloudy with Haze 67 19.4 48 8.9 51 51 Calm 29.80 1009 6 10 0.00 0.00
6:53 am 06:53 Cloudy with Haze 67 19.4 47 8.3 49 49 Calm 29.83 1010 6 10 0.00 0.00
7:53 am 07:53 Cloudy with Haze 69 20.6 48 8.9 47 47 Calm 29.84 1010 5 8 0.00 0.00
8:35 am 08:35 Cloudy with Haze 72 22.2 48 8.9 43 43 SE 5 7 29.85 1011 5 8 0.00 0.00
8:53 am 08:53 Cloudy with Haze 74 23.3 49 9.4 41 41 S 3 6 29.84 1011 4 6 0.00 0.00
9:37 am 09:37 Hazy 78 25.6 51 10.6 39 39 SW 3 6 29.88 1012 3 5 0.00 0.00
9:53 am 09:53 Hazy 79 26.1 51 10.6 38 38 S 5 7 29.84 1011 3 5 0.00 0.00
10:16 am 10:16 Hazy 81 27 50 10 34 34 VRB 3 6 29.85 1011 2 3 0.00 0.00
10:53 am 10:53 Hazy 82 27.8 49 9.4 32 32 Calm 29.84 1010 2 3 0.00 0.00
11:53 am 11:53 Hazy 86 30 48 8.9 27 27 WSW 6 9 29.83 1010 2 3 0.00 0.00
11:56 am 11:56 Mostly Cloudy with Haze 84 29 48 9 29 29 VRB 3 6 29.85 1011 2 3 0.00 0.00
12:53 pm 12:53 Mostly Cloudy with Haze 87 30.6 51 10.6 29 29 VRB 5 7 29.82 1010 2 3 0.00 0.00
1:53 pm 13:53 Mostly Cloudy with Haze 91 32.8 47 8.3 22 22 VRB 3 6 29.80 1009 2 3 0.00 0.00
2:00 pm 14:00 Cloudy with Haze 91 33 46 8 21 21 SW 7 11 29.80 1009 2 3 0.00 0.00
2:19 pm 14:19 Cloudy with Haze 91 32.8 47 8.3 22 22 VRB 5 7 29.77 1008 2 3 0.00 0.00
2:44 pm 14:44 Mostly Cloudy with Haze 91 33 46 8 21 21 Calm 29.77 1008 3 5 0.00 0.00
2:53 pm 14:53 Mostly Cloudy with Haze 93 33.9 47 8.3 21 21 VRB 3 6 29.78 1008 4 6 0.00 0.00
3:53 pm 15:53 Sunny with Smoke 95 35 47 8.3 19 19 SE 14 22 29.76 1008 8 13 0.00 0.00
4:00 pm 16:00 Sunny with Smoke 95 35 45 7 18 18 SSE 15 24 29.74 1007 10 16 0.00 0.00
4:53 pm 16:53 Sunny with Smoke 94 34.4 45 7.2 18 18 SSE 15 24 29.75 1007 10 16 0.00 0.00
5:53 pm 17:53 Sunny with Smoke 92 33.3 48 8.9 22 22 S 15 24 29.74 1007 9 14 0.00 0.00
6:53 pm 18:53 Sunny with Smoke 91 32.8 52 11.1 26 26 SSE 12 19 29.73 1007 10 16 0.00 0.00
7:53 pm 19:53 Sunny with Smoke 86 30 60 15.6 42 42 S 10 17 29.75 1007 10 16 0.00 0.00
8:53 pm 20:53 Clear with Smoke 83 28.3 60 15.6 46 46 S 5 7 29.76 1008 10 16 0.00 0.00
9:53 pm 21:53 Clear with Smoke 81 27.2 60 15.6 49 49 SSE 9 15 29.78 1009 10 16 0.00 0.00
10:53 pm 22:53 Clear with Smoke 82 27.8 56 13.3 41 41 SSW 7 11 29.78 1009 9 14 0.00 0.00
11:53 pm 23:53 Clear with Smoke 81 27.2 56 13.3 42 42 S 12 19 29.78 1009 10 16 0.00 0.00

Powered by AerisWeather